Galaxy 10R

operational
NORAD ID: 26056 Int'l Des: 2000-002 Owner: PAN Country: US
HEOCIRCULAR

Über Galaxy 10R

Beschreibung wird geladen...

Live-Position

3D-Globus wird geladen...

Nächste Überflüge

Höhenverlauf

Altitude vs Time

uPlot chart will show altitude changes over time

Zweizeiliger Elementsatz

1 26056U 00002A 26062.36014133 -.00000256 00000-0 00000+0 0 9991
2 26056 12.0067 32.0170 0004075 207.9210 348.7307 0.99639679 95270
Epoch: 3. März 2026 • Age: 38 hours

Aktueller Status

Höhe 35961.2 km
Geschwindigkeit 3.07 km/s
Subsatellitenpunkt -11.86°S, 64.68°W
Startdatum 25. Jan. 2000
Alter 26.1 years
Typ other

Technische Details

Klassifizierung Payload
Masse 3651.00 kg
Trockenmasse 1987.00 kg
Gesamtmasse 3651.00 kg
Länge 6.00 m
Durchmesser 2.30 m
Spannweite 26.20 m
Form Box + 2 Pan
Hersteller HSES
Bus-Typ HS-601HP
Phasenstatus Renamed
Besitzer/Staat PAN/US

Große Konstellationen

Loading constellations...